Location: Dos Palmas
(32.4468°N, 116.8732°W)
Time: 13:31:08
(UTC+00:00)

Meteor 1-15 Rocket - Pass Details

Date: 20 June 2021
Orbit: 839 x 907 km, 81.2° (Epoch: 30 July)

Event Time Altitude Azimuth Distance (km) Brightness Sun altitude
Rises 03:17:34 0° 351° (N) 3,539 8.1 -4.5°
Reaches altitude 10° 03:20:03 10° 351° (N) 2,594 7.4 -4.9°
Maximum altitude 03:25:59 87° 263° (W) 908 4.4 -6.0°
Drops below altitude 10° 03:31:50 10° 175° (S) 2,554 6.3 -7.0°
Sets 03:34:15 0° 175° (S) 3,482 7.0 -7.4°
